This demonstration page uses our WeatherBlox Daily Observations layout. Learn more.

Left ArrowRight Arrow

Hourly Observations for February 7, 2019

Temp ( °F °C ) Dew Point ( °F °C ) Humidity (%) Winds ( mph kmh ) Pressure ( in mb ) Visibility ( mi km ) Precip ( " mm )
12:44 am 00:44 Cloudy with Light Rain 50 10 48 8.9 93 93 N N/A 30 1016 1.5 2.41401 0.01 0.254
12:51 am 00:51 Cloudy with Mist and Fog 50 10 48 9 94 94 N N/A 29.99 1016 1.75 2.816345 0.01 0.254
12:53 am 00:53 Cloudy with Mist and Fog 50 10 48 8.9 93 93 N N/A 29.98 1015 1.75 2.816345 0.01 0.254
12:59 am 00:59 Cloudy with Light Rain 49 9.4 48 8.9 97 97 N N/A 29.98 1015 0.75 1.207005 N/A
1:28 am 01:28 Cloudy with Fog 48 8.9 47 8.3 96 96 N N/A 29.97 1015 0.25 0.402335 N/A
1:41 am 01:41 Cloudy with Fog 48 8.9 47 8.3 96 96 N N/A 29.96 1015 0.25 0.402335 N/A
1:53 am 01:53 Cloudy with Mist and Fog 47 8.3 46 7.8 97 97 N N/A 29.95 1014 0.75 1.207005 N/A
2:02 am 02:02 Mostly Cloudy with Mist and Fog 48 8.9 47 8.3 96 96 N N/A 29.96 1015 1 1.60934 N/A
2:11 am 02:11 Mostly Cloudy with Fog 48 8.9 46 7.8 93 93 N N/A 29.95 1014 0.5 0.80467 N/A
2:53 am 02:53 Cloudy with Fog 47 8.3 45 7.2 93 93 N N/A 29.92 1013 0.25 0.402335 N/A
3:53 am 03:53 Mostly Cloudy with Fog 47 8.3 46 7.8 97 97 N N/A 29.93 1014 0.5 0.80467 N/A
4:53 am 04:53 Mostly Cloudy with Fog 48 8.9 47 8.3 96 96 N N/A 29.93 1013 0.25 0.402335 N/A
5:53 am 05:53 Mostly Cloudy with Fog 47 8.3 46 7.8 97 97 ENE 3 6 29.92 1013 0.25 0.402335 N/A
6:36 am 06:36 Cloudy with Fog 49 9.4 47 8.3 93 93 N N/A 29.9 1013 0.5 0.80467 N/A
6:46 am 06:46 Mostly Cloudy with Fog 48 8.9 47 8.3 96 96 E 5 7 29.88 1012 0.25 0.402335 N/A
6:53 am 06:53 Mostly Cloudy with Fog 49 9.4 47 8.3 93 93 E 5 7 29.87 1012 0.25 0.402335 N/A
7:53 am 07:53 Cloudy with Fog 53 11.7 52 11.1 96 96 N N/A 29.88 1012 0.5 0.80467 N/A
8:26 am 08:26 Cloudy with Mist and Fog 55 12.8 54 12.2 96 96 N N/A 29.9 1013 1.75 2.816345 N/A
8:43 am 08:43 Cloudy with Light Rain 55 12.8 54 12.2 96 96 N N/A 29.9 1013 2.5 4.02335 0.01 0.254
8:48 am 08:48 Cloudy with Light Rain 54 12 54 12 100 100 N N/A 29.91 1013 1.5 2.41401 0.02 0.508
8:53 am 08:53 Cloudy with Light Rain 54 12.2 53 11.7 97 97 N N/A 29.9 1013 1 1.60934 0.02 0.508
9:10 am 09:10 Cloudy with Light Rain 55 12.8 54 12.2 96 96 E 7 11 29.87 1012 0.75 1.207005 0.01 0.254
9:18 am 09:18 Cloudy with Light Rain 55 12.8 54 12.2 96 96 N N/A 29.87 1012 1.75 2.816345 0.01 0.254
9:29 am 09:29 Cloudy with Light Rain 55 12.8 54 12.2 96 96 ESE 3 6 29.87 1012 1 1.60934 0.01 0.254
9:38 am 09:38 Cloudy with Light Rain 54 12.2 54 12.2 100 100 SSE 3 6 29.89 1012 0.75 1.207005 0.01 0.254
9:53 am 09:53 Cloudy with Light Rain 55 12.8 54 12.2 96 96 VRB 3 6 29.87 1012 1.25 2.011675 0.03 0.762
9:58 am 09:58 Cloudy with Light Rain 55 12.8 54 12.2 96 96 SE 3 6 29.87 1012 1.75 2.816345 N/A
10:04 am 10:04 Cloudy with Light Rain 56 13.3 55 12.8 97 97 N N/A 29.88 1012 3 4.82802 N/A
10:17 am 10:17 Cloudy with Light Rain 56 13.3 55 12.8 97 97 ENE 5 7 29.85 1011 3 4.82802 0.01 0.254
10:34 am 10:34 Cloudy with Light Rain 55 12.8 54 12.2 96 96 E 3 6 29.85 1011 2 3.21868 0.03 0.762
10:41 am 10:41 Cloudy with Rain 55 12.8 54 12.2 96 96 SSE 3 6 29.85 1011 1.5 2.41401 0.05 1.27
10:53 am 10:53 Cloudy with Rain 55 12.8 54 12.2 96 96 E 6 9 29.85 1011 1.25 2.011675 0.08 2.032
11:01 am 11:01 Cloudy with Heavy Rain 55 12.8 54 12.2 96 96 SSE 5 7 29.85 1011 1.5 2.41401 0.05 1.27
11:23 am 11:23 Cloudy with Heavy Thunderstorms 55 12.8 54 12.2 96 96 ESE 3 6 29.84 1011 0.75 1.207005 0.19 4.826
11:38 am 11:38 Cloudy with Nearby Thunderstorms 55 12.8 54 12.2 96 96 ESE 3 6 29.83 1010 0.5 0.80467 0.29 7.366
11:53 am 11:53 Cloudy with Nearby Thunderstorms 55 12.8 54 12.2 96 96 VRB 3 6 29.85 1011 0.75 1.207005 0.39 9.906
12:08 pm 12:08 Cloudy with Nearby Thunderstorms 55 12.8 54 12.2 96 96 E 7 11 29.83 1010 1 1.60934 0.18 4.572
12:19 pm 12:19 Cloudy with Rain 56 13.3 55 12.8 97 97 ESE 6 9 29.8 1009 2 3.21868 0.23 5.842
12:23 pm 12:23 Cloudy with Heavy Rain 56 13.3 55 12.8 97 97 ESE 3 6 29.8 1009 1.5 2.41401 0.26 6.604
12:34 pm 12:34 Cloudy with Heavy Rain 55 12.8 54 12.2 96 96 SE 5 7 29.79 1009 0.5 0.80467 0.31 7.874
12:41 pm 12:41 Cloudy with Light Rain 55 12.8 54 12.2 96 96 SE 6 9 29.78 1009 0.75 1.207005 0.32 8.128
12:48 pm 12:48 Cloudy with Light Rain 55 13 55 13 100 100 VRB 6 9 29.77 1008 2 3.21868 0.32 8.128
12:53 pm 12:53 Cloudy with Light Rain 56 13.3 55 12.8 97 97 SE 7 11 29.76 1008 7 11.26538 0.32 8.128
1:14 pm 13:14 Cloudy with Light Rain 57 13.9 56 13.3 96 96 SSE 8 13 29.75 1007 10 16.0934 0.01 0.254
1:53 pm 13:53 Cloudy with Light Rain 59 15 58 14.4 96 96 VRB 6 9 29.72 1007 10 16.0934 0.02 0.508
2:05 pm 14:05 Cloudy with Light Rain 61 16.1 59 15 93 93 VRB 7 11 29.71 1006 10 16.0934 N/A
2:53 pm 14:53 Cloudy with Light Rain 65 18.3 61 16.1 87 87 WSW 13 20 29.73 1007 5 8.0467 0.02 0.508
3:01 pm 15:01 Cloudy with Heavy Rain 63 17.2 60 15.6 90 90 WNW 24 39 29.74 1007 2.5 4.02335 0.03 0.762
3:05 pm 15:05 Cloudy with Heavy Rain 61 16.1 58 14.4 90 90 WNW 18 30 29.74 1007 1.5 2.41401 0.08 2.032
3:17 pm 15:17 Cloudy with Light Rain 60 15.6 58 14.4 93 93 W 8 13 29.76 1008 1.75 2.816345 0.16 4.064
3:19 pm 15:19 Cloudy with Light Rain 60 15.6 58 14.4 93 93 W 9 15 29.76 1008 3 4.82802 0.16 4.064
3:53 pm 15:53 Cloudy with Light Rain 59 15 58 14.4 96 96 N N/A 29.75 1007 10 16.0934 0.19 4.826
4:53 pm 16:53 Cloudy with Light Rain 61 16.1 59 15 93 93 VRB 3 6 29.75 1008 6 9.65604 0.03 0.762
5:53 pm 17:53 Cloudy with Light Rain 61 16.1 58 14.4 90 90 SSW 8 13 29.73 1007 10 16.0934 0.01 0.254
6:53 pm 18:53 Cloudy with Rain 61 16.1 58 14.4 90 90 SSW 12 19 29.72 1007 5 8.0467 0.06 1.524
7:30 pm 19:30 Cloudy with Light Rain 60 15.6 58 14.4 93 93 SSW 10 17 29.72 1006 8 12.87472 0.05 1.27
7:53 pm 19:53 Cloudy with Light Rain 59 15 57 13.9 93 93 W 22 35 29.78 1009 6 9.65604 0.07 1.778
8:12 pm 20:12 Cloudy with Light Rain 47 8.3 44 6.7 90 90 WNW 22 35 29.82 1010 10 16.0934 0.04 1.016
8:37 pm 20:37 Cloudy with Light Rain 46 7.8 42 5.6 86 86 W 18 30 29.86 1011 10 16.0934 0.04 1.016
8:53 pm 20:53 Cloudy 45 7.2 40 4.4 83 83 W 14 22 29.87 1012 10 16.0934 0.04 1.016
9:00 pm 21:00 Cloudy 45 7.2 40 4.4 83 83 W 17 28 29.9 1012 10 16.0934 N/A
9:10 pm 21:10 Cloudy 44 6.7 40 4.4 85 85 W 17 28 29.9 1012 10 16.0934 N/A
9:26 pm 21:26 Cloudy 44 6.7 39 3.9 83 83 W 15 24 29.92 1013 10 16.0934 N/A
9:39 pm 21:39 Cloudy 43 6.1 38 3.3 82 82 W 20 31 29.93 1013 10 16.0934 N/A
9:53 pm 21:53 Cloudy 42 5.6 38 3.3 85 85 WNW 16 26 29.94 1014 10 16.0934 N/A
10:53 pm 22:53 Cloudy 39 3.9 34 1.1 82 82 W 16 26 30 1016 10 16.0934 N/A
11:36 pm 23:36 Mostly Cloudy 37 2.8 31 -0.6 79 79 WNW 14 22 30.04 1017 10 16.0934 N/A
11:49 pm 23:49 Mostly Cloudy 37 3 30 -1 75 75 WNW 15 24 30.06 1018 10 16.0934 N/A
11:53 pm 23:53 Mostly Cloudy 37 2.8 31 -0.6 79 79 W 13 20 30.04 1017 10 16.0934 N/A

Powered by AerisWeather